Location: Vihti�l�
(61.3833°N, 23.0667°E)
Time: 05:16:23
(UTC+00:00)

ATLAS 2AS CENTAUR R/B - Pass Details

Date: 29 November 2020
Orbit: 943 x 1268 km, 63.7° (Epoch: 21 January)

Event Time Altitude Azimuth Distance (km) Brightness Sun altitude
Rises 06:06:49 0° 256° (WSW) 4,230 5.4 -6.6°
Reaches altitude 10° 06:09:40 10° 258° (WSW) 3,257 4.8 -6.4°
Maximum altitude 06:17:37 80° 346° (NNW) 1,259 3.1 -5.6°
Drops below altitude 10° 06:25:12 10° 74° (ENE) 3,108 5.7 -4.9°
Sets 06:27:52 0° 76° (ENE) 4,029 6.3 -4.6°
